Zurück zum Katalog

BREEZE-M DEB

TANK

AktivHEO
NORAD 28359·DEBRIS·🇷🇺 Russia

Gestartet Jun 16, 2004 von Baikonur Cosmodrome

Loading…

Nächste Überflüge (nächste 24 Stunden)

TLE

AktuellSource: Space-Track

Epoche: Sep 13, 2026, 18:41 UTC

1 28359U 04022B   26256.77881667  .00005032  00000-0  53274-3 0  9990
2 28359  49.5185 181.0435 4482666 301.5056  22.3113  6.53231637498413

Verfolge BREEZE-M DEB in Echtzeit mit AllMySat

Download on the App Store